[[{"header":{"parameterUnit":"m.s-1","parameterCategory":1,"la1":30.2991,"la2":30.254,"lo1":-89.0895,"lo2":-89.0444,"dy":0.0017,"dx":0.0017,"nx":28,"ny":28,"refTime":"2023-04-08T21:00:00:Z","depth":0,"parameterNumber":2,"parameterNumberName":"U-component_of_WINDS"},"data":[0,0,0,0,0,0,0,0,0,0,0,0,0,0,0,0,0,0,0,0,0,0,0,0,0,0,0,0,0,0,0,0,0,0,0,0,0,0,0,0,0,0,0,0,0,0,0,0,0,0,0,0,0,0,0,0,0,0,-3.0255,-3.0256,0,-3.035,-3.0351,-3.0352,-3.0307,-3.0305,-3.0302,-3.03,-3.0403,-3.0408,-3.0413,0,0,0,0,0,0,0,0,0,0,0,0,0,-3.0038,-3.0042,-3.0255,-3.0256,-3.0257,-3.035,-3.0351,-3.0353,-3.0308,-3.0305,-3.0302,-3.0299,-3.0401,-3.0407,-3.0413,0,0,0,0,0,0,0,0,0,0,0,0,0,-3.0133,-3.0043,-3.0254,-3.0246,-3.0246,-3.035,-3.0351,-3.0353,-3.0308,-3.0305,-3.0301,-3.0297,-3.0399,-3.0407,-3.0414,-3.0534,0,0,-3.0437,-3.044,0,0,0,0,0,0,0,0,-3.0127,-3.0141,-3.0246,-3.0246,-3.0247,-3.0313,-3.0312,-3.0414,-3.0309,-3.0285,-3.03,-3.0296,-3.0376,-3.0385,-3.0412,-3.0539,-3.0543,-3.0438,-3.0442,-3.0445,-3.0448,0,0,0,0,0,0,0,-3.0121,-3.0136,-3.0293,-3.0247,-3.0248,-3.0238,-3.0248,-3.0331,-3.035,-3.0287,-3.0283,-3.0295,-3.0376,-3.0404,-3.0414,-3.0544,-3.0437,-3.0444,-3.0449,-3.0452,-3.0776,-3.078,0,0,0,0,0,0,-3.0114,-3.0131,-3.029,-3.0295,-3.0177,-3.0245,-3.0256,-3.0295,-3.0349,-3.0353,-3.0298,-3.0293,-3.0393,-3.0405,-3.0417,-3.0562,-3.0445,-3.0452,-3.0457,-3.0772,-3.0777,-3.0781,0,0,0,0,0,0,-3.0109,-3.0128,-3.0286,-3.0212,-3.0232,-3.0253,-3.0298,-3.0299,-3.0328,-3.0358,-3.0361,-3.0324,-3.0391,-3.0407,-3.0505,-3.0565,-3.0456,-3.0463,-3.0767,-3.0773,-3.0779,-3.0853,0,0,0,0,0,0,-3.0103,-3.0127,-3.0172,-3.0214,-3.0236,-3.0371,-3.0301,-3.0304,-3.034,-3.0334,-3.0383,-3.0387,-3.0389,-3.0494,-3.0513,-3.0574,-3.0469,-3.0762,-3.077,-3.0777,-3.0845,-3.0861,-3.0874,0,0,0,0,0,-3.0096,-3.019,-3.0174,-3.0194,-3.0292,-3.0374,-3.0387,-3.0386,-3.0345,-3.0391,-3.041,-3.0386,-3.0555,-3.0504,-3.0525,-3.0589,-3.0758,-3.0767,-3.0776,-3.0839,-3.0858,-3.0874,0,0,0,0,0,0,-3.0156,-3.0195,-3.0179,-3.0288,-3.0328,-3.0367,-3.0425,-3.0406,-3.046,-3.0452,-3.045,-3.0461,-3.0564,-3.0586,-3.0529,-3.0708,-3.065,-3.0664,-3.0691,-3.0709,-3.0723,-3.0717,-3.0475,0,0,0,0,0,-3.0182,-3.0244,-3.0275,-3.0369,-3.039,-3.0404,-3.044,-3.0435,-3.0477,-3.0495,-3.0521,-3.0564,-3.0627,-3.0669,-3.0728,-3.0847,-3.0858,-3.0901,-3.0915,-3.0927,-3.094,-3.1006,-3.1026,-3.0811,-3.0811,-3.0811,0,0,-3.0237,-3.0266,-3.0305,-3.0382,-3.0413,-3.0479,-3.0419,-3.0491,-3.0541,-3.0506,-3.0601,-3.0622,-3.0669,-3.0779,-3.0829,-3.0801,-3.1001,-3.0939,-3.0948,-3.0955,-3.1018,-3.1038,-3.1056,-3.0818,-3.0816,-3.0815,0,0,-3.0371,-3.0398,-3.048,-3.0511,-3.0557,-3.0566,-3.0585,-3.0626,-3.0638,-3.0733,-3.0708,-3.0768,-3.0876,-3.0911,-3.0943,-3.109,-3.107,-3.1109,-3.1186,-3.125,-3.1267,-3.1282,-3.1337,-3.1356,-3.1121,-3.1121,-3.1121,0,-3.0434,-3.0531,-3.0525,-3.0599,-3.0635,-3.0604,-3.0688,-3.0719,-3.0783,-3.0809,-3.0775,-3.0911,-3.0941,-3.1059,-3.1094,-3.1121,-3.1145,-3.1105,-3.1265,-3.128,-3.1294,-3.1346,-3.1366,-3.1126,-3.1125,-3.1125,-3.1125,0,-3.0608,-3.0675,-3.0736,-3.0797,-3.0839,-3.0918,-3.0925,-3.0968,-3.096,-3.0972,-3.1069,-3.1104,-3.117,-3.1197,-3.119,-3.1315,-3.1296,-3.1264,-3.1206,-3.1319,-3.1368,-3.1388,-3.1133,-3.1131,-3.113,-3.1128,0,0,-3.0786,-3.084,-3.0863,-3.0891,-3.0938,-3.0992,-3.1069,-3.1132,-3.1171,-3.1215,-3.1282,-3.1373,-3.1344,-3.138,-3.1377,-3.1433,-3.1549,-3.1394,-3.1395,-3.1424,-3.1691,-3.1717,-3.174,-3.1535,-3.1538,-3.1541,-3.1688,0,-3.0925,-3.106,-3.1056,-3.1182,-3.1246,-3.1217,-3.1285,-3.1322,-3.1336,-3.1393,-3.1408,-3.1473,-3.1428,-3.145,-3.1504,-3.1524,-3.1603,-3.1513,-3.16,-3.1603,-3.1591,-3.1766,-3.1793,-3.193,-3.1707,-3.171,-3.1713,0,-3.1106,-3.1155,-3.1288,-3.1326,-3.1353,-3.1414,-3.1472,-3.1526,-3.1568,-3.1574,-3.1614,-3.1602,-3.1682,-3.162,-3.1732,-3.1671,-3.1705,-3.172,-3.1726,-3.1736,-3.1667,-3.1784,-3.1974,-3.1996,-3.1742,-3.174,-3.1738,0,-3.1226,-3.1325,-3.1417,-3.1441,-3.1488,-3.1532,-3.1554,-3.1592,-3.163,-3.1681,-3.1706,-3.1766,-3.18,-3.1847,-3.1852,-3.1805,-3.1966,-3.1903,-3.1975,-3.1975,-3.2013,-3.2011,-3.2214,-3.2031,-3.203,-3.203,-3.203,0,-3.1384,-3.1467,-3.1471,-3.1529,-3.1621,-3.1615,-3.1708,-3.1725,-3.176,-3.1821,-3.1799,-3.1857,-3.1858,-3.1918,-3.1922,-3.2016,-3.2031,-3.2039,-3.204,-3.2043,-3.2043,-3.2069,-3.206,-3.2035,-3.2034,-3.2033,-3.2032,0,-3.1534,-3.154,-3.164,-3.1675,-3.1686,-3.1752,-3.1783,-3.1839,-3.1849,-3.1927,-3.1945,-3.1962,-3.2031,-3.2039,-3.2121,-3.2123,-3.2237,-3.2226,-3.2223,-3.2222,-3.2295,-3.2289,-3.2524,-3.2556,-3.2349,-3.2351,-3.2353,0,-3.1636,-3.1699,-3.1741,-3.1779,-3.1803,-3.1866,-3.1904,-3.1901,-3.1942,-3.1995,-3.2044,-3.2111,-3.2165,-3.2277,-3.2298,-3.2361,-3.2353,-3.2431,-3.2363,-3.2364,-3.2358,-3.2355,-3.2362,-3.2446,-3.2448,-3.245,-3.2451,0,-3.1817,-3.1817,-3.1872,-3.1929,-3.1975,-3.202,-3.2063,-3.2096,-3.2098,-3.2146,-3.2216,-3.2257,-3.2339,-3.2407,-3.2468,-3.2493,-3.2474,-3.2472,-3.2492,-3.2498,-3.2494,-3.25,-3.2262,-3.2467,-3.2466,-3.2465,-3.2464,-3.2463,-3.1949,-3.2004,-3.2041,-3.2104,-3.2135,-3.2175,-3.2228,-3.2244,-3.2302,-3.2368,-3.2362,-3.244,-3.2481,-3.2561,-3.259,-3.2652,-3.2626,-3.2656,-3.2664,-3.2672,-3.268,-3.2482,-3.2663,-3.2662,-3.2662,-3.2662,-3.2661,0,-3.2131,-3.2153,-3.2211,-3.227,-3.2319,-3.2293,-3.2339,-3.2383,-3.2451,-3.249,-3.2542,-3.2624,-3.2689,-3.2714,-3.2778,-3.2823,-3.2816,-3.284,-3.2839,-3.2845,-3.2698,-3.2675,-3.2845,-3.2845,-3.2845,-3.2845,-3.2845,-3.2845,-3.2232,-3.2324,-3.2328,-3.2435,-3.2457,-3.2532,-3.256,-3.2597,-3.2628,-3.2719,-3.2773,-3.2788,-3.2822,-3.2888,-3.2947,-3.2953,-3.2979,-3.3008,-3.301,-3.2873,-3.2855,-3.2837,-3.2816,-3.3013,-3.3013,-3.3152,-3.3154,-3.3155]},{"header":{"parameterUnit":"m.s-1","parameterCategory":1,"la1":30.2991,"la2":30.254,"lo1":-89.0895,"lo2":-89.0444,"dy":0.0017,"dx":0.0017,"nx":28,"ny":28,"refTime":"2023-04-08T21:00:00:Z","depth":0,"parameterNumber":3,"parameterNumberName":"V-component_of_WINDS"},"data":[0,0,0,0,0,0,0,0,0,0,0,0,0,0,0,0,0,0,0,0,0,0,0,0,0,0,0,0,0,0,0,0,0,0,0,0,0,0,0,0,0,0,0,0,0,0,0,0,0,0,0,0,0,0,0,0,0,0,-4.1304,-4.1304,0,-4.1321,-4.1321,-4.1321,-4.1261,-4.1259,-4.1258,-4.1256,-4.1272,-4.1274,-4.1276,0,0,0,0,0,0,0,0,0,0,0,0,0,-4.1217,-4.1219,-4.1304,-4.1304,-4.1304,-4.1321,-4.1321,-4.1321,-4.1261,-4.1259,-4.1257,-4.1255,-4.1271,-4.1274,-4.1276,0,0,0,0,0,0,0,0,0,0,0,0,0,-4.1246,-4.1219,-4.1304,-4.1276,-4.1274,-4.1321,-4.1321,-4.1321,-4.1262,-4.1259,-4.1256,-4.1254,-4.127,-4.1273,-4.1276,-4.135,0,0,-4.1286,-4.1287,0,0,0,0,0,0,0,0,-4.1245,-4.125,-4.128,-4.1278,-4.1276,-4.1286,-4.1296,-4.1331,-4.1263,-4.1266,-4.1256,-4.1253,-4.1279,-4.1281,-4.129,-4.1351,-4.1351,-4.1286,-4.1288,-4.129,-4.1291,0,0,0,0,0,0,0,-4.1243,-4.1249,-4.131,-4.1281,-4.1278,-4.1262,-4.1264,-4.1303,-4.1287,-4.1266,-4.1262,-4.1265,-4.1277,-4.1287,-4.129,-4.1352,-4.1286,-4.1289,-4.1291,-4.1292,-4.1474,-4.1476,0,0,0,0,0,0,-4.1245,-4.1247,-4.131,-4.1311,-4.1253,-4.1266,-4.1268,-4.1285,-4.1287,-4.1284,-4.1267,-4.1262,-4.1283,-4.1286,-4.129,-4.1377,-4.129,-4.1293,-4.1294,-4.1471,-4.1474,-4.1477,0,0,0,0,0,0,-4.1243,-4.1251,-4.1309,-4.1278,-4.1284,-4.1271,-4.1291,-4.1287,-4.1297,-4.1288,-4.1284,-4.128,-4.1281,-4.1286,-4.1336,-4.1376,-4.1294,-4.1297,-4.1467,-4.1472,-4.1476,-4.155,0,0,0,0,0,0,-4.1241,-4.1251,-4.1279,-4.1279,-4.1286,-4.1355,-4.1294,-4.129,-4.1303,-4.1297,-4.1299,-4.1297,-4.1279,-4.1331,-4.1339,-4.1379,-4.1299,-4.1463,-4.1469,-4.1474,-4.1544,-4.1557,-4.1567,0,0,0,0,0,-4.1238,-4.1299,-4.1281,-4.1288,-4.1321,-4.1357,-4.1361,-4.134,-4.1307,-4.1335,-4.1328,-4.1297,-4.1371,-4.1337,-4.1345,-4.1387,-4.1461,-4.1468,-4.1474,-4.1539,-4.1554,-4.1567,0,0,0,0,0,0,-4.1302,-4.1298,-4.1278,-4.1341,-4.135,-4.1347,-4.1382,-4.1357,-4.1376,-4.1369,-4.1341,-4.1342,-4.1397,-4.1397,-4.1359,-4.1458,-4.141,-4.1418,-4.1456,-4.1471,-4.1482,-4.1481,-4.1302,0,0,0,0,0,-4.1324,-4.1355,-4.1349,-4.1405,-4.141,-4.1396,-4.141,-4.1394,-4.1402,-4.1405,-4.1402,-4.1411,-4.1436,-4.1453,-4.1476,-4.1543,-4.1543,-4.1576,-4.1588,-4.1598,-4.1605,-4.1641,-4.1656,-4.1499,-4.1499,-4.1499,0,0,-4.1369,-4.137,-4.1391,-4.1418,-4.1423,-4.1455,-4.1399,-4.1435,-4.1458,-4.141,-4.1458,-4.1456,-4.1464,-4.1523,-4.1549,-4.1525,-4.1649,-4.1606,-4.1614,-4.1616,-4.165,-4.1665,-4.1678,-4.1503,-4.1503,-4.1502,0,0,-4.1467,-4.1471,-4.1518,-4.1525,-4.1534,-4.1524,-4.1535,-4.1536,-4.1534,-4.1581,-4.1546,-4.1573,-4.1616,-4.1624,-4.1633,-4.1735,-4.1707,-4.1743,-4.1804,-4.1839,-4.1851,-4.1862,-4.1899,-4.1912,-4.175,-4.175,-4.1751,0,-4.1521,-4.1569,-4.1545,-4.1584,-4.1597,-4.1556,-4.1603,-4.161,-4.1626,-4.1636,-4.1608,-4.1663,-4.1665,-4.1726,-4.1751,-4.1759,-4.1771,-4.1742,-4.1852,-4.1862,-4.1872,-4.1907,-4.192,-4.1755,-4.1754,-4.1754,-4.1753,0,-4.1635,-4.1668,-4.1705,-4.1723,-4.1739,-4.1782,-4.1765,-4.1785,-4.1766,-4.1759,-4.1808,-4.1809,-4.1831,-4.1844,-4.1826,-4.1903,-4.1887,-4.1856,-4.1807,-4.1892,-4.1924,-4.1937,-4.1761,-4.176,-4.1758,-4.1757,0,0,-4.1774,-4.1779,-4.1793,-4.18,-4.1807,-4.1832,-4.1873,-4.1896,-4.1913,-4.1925,-4.1959,-4.1997,-4.1969,-4.198,-4.1962,-4.1993,-4.2074,-4.1958,-4.1958,-4.198,-4.2159,-4.2183,-4.2198,-4.2055,-4.2058,-4.206,-4.2158,0,-4.1871,-4.1942,-4.1922,-4.1993,-4.2024,-4.1985,-4.2021,-4.2029,-4.2023,-4.2048,-4.2041,-4.2069,-4.2029,-4.2035,-4.2064,-4.2058,-4.211,-4.2051,-4.2086,-4.2088,-4.2086,-4.2215,-4.224,-4.2333,-4.2171,-4.2173,-4.2174,0,-4.1993,-4.2011,-4.2086,-4.2088,-4.21,-4.2133,-4.2152,-4.2176,-4.2184,-4.2178,-4.2191,-4.2167,-4.2207,-4.2158,-4.2212,-4.2173,-4.2186,-4.2185,-4.2188,-4.2191,-4.2137,-4.2222,-4.2362,-4.2376,-4.2194,-4.2192,-4.2191,0,-4.2088,-4.2131,-4.2181,-4.2188,-4.2192,-4.2216,-4.2219,-4.2225,-4.224,-4.2256,-4.2266,-4.2287,-4.2298,-4.2315,-4.2297,-4.2263,-4.2355,-4.2304,-4.2351,-4.2351,-4.2372,-4.2371,-4.2517,-4.238,-4.238,-4.238,-4.2379,0,-4.2198,-4.2245,-4.2223,-4.2254,-4.2306,-4.2283,-4.2334,-4.2332,-4.2338,-4.2367,-4.2335,-4.2363,-4.2338,-4.2364,-4.235,-4.2398,-4.2403,-4.2399,-4.2395,-4.2402,-4.2403,-4.2411,-4.2404,-4.2383,-4.2383,-4.2382,-4.2381,0,-4.2313,-4.23,-4.2352,-4.2352,-4.2353,-4.2391,-4.2391,-4.2419,-4.2411,-4.2449,-4.2457,-4.2444,-4.2473,-4.2457,-4.2487,-4.2477,-4.254,-4.2526,-4.2537,-4.2534,-4.2582,-4.2578,-4.2738,-4.2758,-4.2608,-4.261,-4.2611,0,-4.2384,-4.242,-4.2424,-4.2442,-4.2447,-4.2476,-4.2492,-4.247,-4.2487,-4.25,-4.2527,-4.2553,-4.2573,-4.2621,-4.2614,-4.2637,-4.2624,-4.2679,-4.2627,-4.2634,-4.2626,-4.2624,-4.2628,-4.2689,-4.2691,-4.2693,-4.2694,0,-4.2513,-4.2505,-4.2529,-4.2551,-4.2571,-4.2587,-4.26,-4.2616,-4.2595,-4.2616,-4.2646,-4.2662,-4.2692,-4.2719,-4.2738,-4.274,-4.2714,-4.271,-4.2722,-4.273,-4.2735,-4.2734,-4.2566,-4.2707,-4.2705,-4.2704,-4.2704,-4.2703,-4.2608,-4.2638,-4.2646,-4.2674,-4.2682,-4.2695,-4.2722,-4.2718,-4.2743,-4.2767,-4.2752,-4.2787,-4.2795,-4.2818,-4.2824,-4.2851,-4.2828,-4.2846,-4.285,-4.2855,-4.2862,-4.2731,-4.2854,-4.2853,-4.2853,-4.2853,-4.2852,0,-4.2735,-4.2739,-4.2765,-4.2785,-4.2807,-4.2781,-4.2794,-4.2814,-4.2846,-4.2855,-4.2876,-4.291,-4.2936,-4.2932,-4.2955,-4.2977,-4.2966,-4.2984,-4.2982,-4.2984,-4.288,-4.2868,-4.2993,-4.2993,-4.2993,-4.2993,-4.2993,-4.2993,-4.2804,-4.2853,-4.2847,-4.29,-4.2902,-4.2937,-4.2947,-4.296,-4.2967,-4.3007,-4.3029,-4.3026,-4.303,-4.3054,-4.3076,-4.3074,-4.3084,-4.3107,-4.3101,-4.3005,-4.2991,-4.2977,-4.2966,-4.311,-4.311,-4.3202,-4.3203,-4.3204]}]]